AL YAH 3

Last updated on Sun Jun 21 2026 00:03:07 GMT+0000 (Coordinated Universal Time)

1 43174U 18012A 26171.38799713 -.00000160 00000+0 00000+0 0 9991 2 43174 1.5612 83.0720 0003880 3.9994 301.0809 1.00272206 30878
UTC large
Height (km)
Speed (km/s)
/
Latitude / Longitude
Inclination (degrees)
Orbital Period (minutes)
Azimuth
Elevation
Range (km)
Doppler Factor

Next 0 passes for location: London (51.5072 / 0.1276)

No passes found over London.
AL YAH 3